"Pseudo-MPEC" for scax010

Created 2023 Mar 22 15:22:19 UT using Find_Orb

Click here for an explanation of pseudo-MPECs

 
 Astrometry: 
     scax010* C2023 02 23UClFPSsff4_MAstrometryrNK9vYSQUnredacted;!\TMKU.O0QuL92
     scax010  C2023 02 23W[N*:r;AjiG)?6q5*clickLq8EEc-m08hAt=%v1w7-gZTp4,KIkwL92
     scax010  C2023 02 23u)BthereGv'n-?\(9forS.explanationi?+ZLM;won^@=Oq82n2L92

Station data:
(L92) San Costantino  (N38.705391 E16.002110)  Italy.  Observer T. Scarmato.
   0.25-m Newtonian reflector + CCD.

Orbital elements:  scax010
   Perihelion 2023 Jan 2.93878 +/- 44.6 TT = 22:31:50 (JD 2459947.43878)
Epoch 2023 Feb 24.0 TT = JDT 2459999.5   Earth MOID: 0.2424   Ma: 0.0529
M  14.76255809 +/- 20               (J2000 ecliptic)             AutoNEOCP
n   0.28356149 +/- 0.228            Peri.  333.07762 +/- 70
a   2.29458706 +/- 1.23             Node   136.31792 +/- 46
e   0.4667554 +/- 0.204             Incl.    3.96031 +/- 1.7
P   3.48                   H 20.07  G  0.15   U 11.8  SR
q 1.22357612 +/- 0.312    Q 3.36559800 +/- 3.96
From 3 observations 2023 Feb. 23 (22.5 min); mean residual 1".12
Residuals in arcseconds: 
230223 L92  .91-  .51-    230223 L92  1.9+  1.1+    230223 L92  1.0-  .61-    

Ephemerides (geocentric):
Date (UTC) HH   RA             Dec           delta  r     elong  mag " sig PA
---- --------  ------------   ------------  ------ ------ -----  --- --------
2023 03 22 15  10 14 37.696   +17 34 01.32  .52390 1.4649 147.3 20.6  56d   7
2023 03 22 16  10 14 39.664   +17 33 54.24  .52424 1.4651 147.3 20.6  56d   7
2023 03 22 17  10 14 41.634   +17 33 47.13  .52458 1.4653 147.2 20.6  56d   7
2023 03 22 18  10 14 43.607   +17 33 39.99  .52492 1.4655 147.2 20.6  56d   7
2023 03 22 19  10 14 45.581   +17 33 32.82  .52527 1.4658 147.2 20.6  56d   7
2023 03 22 20  10 14 47.557   +17 33 25.62  .52561 1.4660 147.1 20.6  56d   7
2023 03 22 21  10 14 49.535   +17 33 18.39  .52595 1.4662 147.1 20.6  56d   7
2023 03 22 22  10 14 51.515   +17 33 11.12  .52629 1.4664 147.1 20.6  56d   7
2023 03 22 23  10 14 53.497   +17 33 03.83  .52664 1.4666 147.1 20.6  56d   7
2023 03 23 00  10 14 55.482   +17 32 56.50  .52698 1.4668 147.0 20.6  56d   7
2023 03 23 01  10 14 57.468   +17 32 49.15  .52732 1.4671 147.0 20.6  56d   7
2023 03 23 02  10 14 59.456   +17 32 41.76  .52767 1.4673 147.0 20.6  56d   7
2023 03 23 03  10 15 01.446   +17 32 34.34  .52801 1.4675 146.9 20.6  57d   7
2023 03 23 04  10 15 03.438   +17 32 26.89  .52836 1.4677 146.9 20.6  57d   7
2023 03 23 05  10 15 05.432   +17 32 19.41  .52870 1.4679 146.9 20.6  57d   7
2023 03 23 06  10 15 07.427   +17 32 11.91  .52905 1.4682 146.8 20.6  57d   7
2023 03 23 07  10 15 09.425   +17 32 04.37  .52939 1.4684 146.8 20.6  57d   7
2023 03 23 08  10 15 11.425   +17 31 56.80  .52974 1.4686 146.8 20.6  57d   7
2023 03 23 09  10 15 13.427   +17 31 49.19  .53008 1.4688 146.7 20.6  57d   7
2023 03 23 10  10 15 15.431   +17 31 41.56  .53043 1.4690 146.7 20.6  57d   7
2023 03 23 11  10 15 17.437   +17 31 33.90  .53077 1.4693 146.7 20.6  57d   7
2023 03 23 12  10 15 19.444   +17 31 26.21  .53112 1.4695 146.6 20.6  57d   7
2023 03 23 13  10 15 21.454   +17 31 18.49  .53146 1.4697 146.6 20.6  57d   7
2023 03 23 14  10 15 23.466   +17 31 10.74  .53181 1.4699 146.6 20.6  57d   7
2023 03 23 15  10 15 25.480   +17 31 02.95  .53216 1.4701 146.5 20.6  57d   7
2023 03 23 16  10 15 27.495   +17 30 55.14  .53250 1.4704 146.5 20.6  57d   7
2023 03 23 17  10 15 29.513   +17 30 47.30  .53285 1.4706 146.5 20.7  57d   7
2023 03 23 18  10 15 31.532   +17 30 39.42  .53320 1.4708 146.4 20.7  57d   7
2023 03 23 19  10 15 33.554   +17 30 31.52  .53355 1.4710 146.4 20.7  57d   7
2023 03 23 20  10 15 35.577   +17 30 23.58  .53389 1.4712 146.4 20.7  57d   7
2023 03 23 21  10 15 37.603   +17 30 15.62  .53424 1.4715 146.3 20.7  57d   7
2023 03 23 22  10 15 39.630   +17 30 07.63  .53459 1.4717 146.3 20.7  57d   7
2023 03 23 23  10 15 41.660   +17 29 59.60  .53494 1.4719 146.3 20.7  57d   7
2023 03 24 00  10 15 43.691   +17 29 51.55  .53529 1.4721 146.2 20.7  57d   7
2023 03 24 01  10 15 45.725   +17 29 43.46  .53564 1.4723 146.2 20.7  57d   7
2023 03 24 02  10 15 47.760   +17 29 35.35  .53599 1.4726 146.2 20.7  57d   7
2023 03 24 03  10 15 49.797   +17 29 27.21  .53633 1.4728 146.1 20.7  57d   7
2023 03 24 04  10 15 51.836   +17 29 19.03  .53668 1.4730 146.1 20.7  57d   7
2023 03 24 05  10 15 53.878   +17 29 10.83  .53703 1.4732 146.1 20.7  57d   7
2023 03 24 06  10 15 55.921   +17 29 02.59  .53738 1.4734 146.0 20.7  57d   7
2023 03 24 07  10 15 57.966   +17 28 54.33  .53773 1.4737 146.0 20.7  57d   7
2023 03 24 08  10 16 00.013   +17 28 46.04  .53808 1.4739 146.0 20.7  57d   7
2023 03 24 09  10 16 02.062   +17 28 37.71  .53844 1.4741 145.9 20.7  57d   7
2023 03 24 10  10 16 04.113   +17 28 29.36  .53879 1.4743 145.9 20.7  57d   7
2023 03 24 11  10 16 06.166   +17 28 20.98  .53914 1.4746 145.9 20.7  57d   7
2023 03 24 12  10 16 08.221   +17 28 12.57  .53949 1.4748 145.8 20.7  57d   7
2023 03 24 13  10 16 10.278   +17 28 04.13  .53984 1.4750 145.8 20.7  57d   7
2023 03 24 14  10 16 12.337   +17 27 55.66  .54019 1.4752 145.8 20.7  57d   7